SL-12 R/B(2), 33471

Orbit data source: Space-Track

SL-12 R/B(2), 33471 is space debris in MEO originally from a launch on Thu, 25 Dec 2008 UTC launched from the Tyuratam Missile And Space Complex (TTMTR). Debris objects in space refer to the collection of defunct objects orbiting the Earth. Examples of debris include non-operational satellites, rocket bodies, and fragments generated from explosions, collisions, or faulty payload assembly.

Loading next visibility...
SL-12 R/B(2) details
Identifier
33471, 2008-067F
Orbit
MEO
Last TLE update16 hours ago
Origin
Flag of CISKhrunichev (CIS)
ManufacturerRKKE
MissionSpacecraft
Bus & MotorBLOK DM2, 11D58M
Mass2,440 kg wet, 2,440 kg dry
Launch date (UTC)
2008-12-25 (16 years ago)
Launch vehicleUnknown
Launch site
Tyuratam Missile And Space Complex (TTMTR)
Object type
Payload
Rocket body
Debris
Shape & HBRCyl, 7.1 m
Radar Cross Section26.008 m², Large (>1 m²)

Expand to show TLE details & history

TLE from 16 hours ago
0 SL-12 R/B(2)
1 33471U 08067F   24360.95396671 -.00000040  00000-0  00000-0 0  9995
2 33471  64.5038  87.5374 0004208 333.7340  27.5831  2.13248489124629
Epoch: 2024-12-25T22:53Z
Definitive object data (Epoch: 2024-12-25T22:53:42.723Z)
Latitude1.19295°
Longitude9.74369°
Altitude19,109.095 km
Speed3.955 km/s
True Right ascension05h 52m 26s
True Declination1° 11' 27"
Sunlit
Object was in daylight at TLE epoch
Visualization TLE readout
Latitude28.50696°
Longitude174.18348°
Altitude19,130.531 km
Speed3.953 km/s
Apparent Right ascension17h 29m 10s
Apparent Declination23° 03' 19"
Sunlit
Object is in daylight
Visualization observer readout
Local Sidereal Time14:06:11
Azimuth95.868° ESE
Elevation44.254°
Doppler factor1
Orbital elements
Apogee altitude19,128.565 km
Perigee altitude19,107.108 km
Semi-major axis25,495.973 km
Eccentricity0.0004208
Inclination64.5038°
RAAN87.5374°
Arg. of periapsis333.734°
True anomaly27.60544°
Mean anomaly27.5831°
Eccentric anomaly27.59427°
Mean motion0.53313 °/min
BSTARUnknown
Orbital period675.25 mins
Loading maneuver chart data...
Loading historical data...
Loading historical data...
Loading historical data...
Loading historical data...
Loading historical data...
Loading historical data...
Loading historical data...

SL-12 R/B(2) Visibility forecast

Observer location: undefined°, undefined

Span
Click to sort rows by Start time (UTC) header in descending order
Start Az.
Max El. time (UTC)
Max El. Az.
Max El.
End time (UTC)
End Az.
88 mins2024-12-26 14:44:17.615Z95.908° ESE2024-12-26 14:44:17.615Z95.908° ESE34.904°2024-12-26 16:12:17.615Z135.982° SSE
362 mins2024-12-27 08:00:17.615Z214.375° SW2024-12-27 10:35:17.615Z319.661° NNW41.729°2024-12-27 14:02:17.615Z103.583° ESE
|